Location: Vancouver
(49.2500°N, 123.1330°W)
Time: 17:22:50
(UTC-07:00)

Cosmos 2333 Rocket - Visible Passes

Search period start: 23 September 2014 00:00
Search period end: 03 October 2014 00:00
Orbit: 838 x 864 km, 70.9° (Epoch: 23 September)

Date Brightness Start Highest point End Pass type
(mag) Time Alt. Az. Time Alt. Az. Time Alt. Az.
23 Sep 4.4 01:55:16 19° ENE 01:55:16 19° ENE 01:57:07 10° NE visible
23 Sep 2.9 03:37:16 46° NNW 03:37:16 46° NNW 03:41:48 10° NNE visible
23 Sep 4.2 05:19:17 12° WNW 05:21:51 15° NNW 05:25:10 10° N visible
24 Sep 4.6 01:43:23 17° NE 01:43:23 17° NE 01:44:50 10° NE visible
24 Sep 3.2 03:25:24 41° N 03:25:24 41° N 03:29:31 10° NNE visible
24 Sep 4.2 05:07:24 13° NW 05:09:34 15° NNW 05:12:53 10° N visible
25 Sep 4.7 01:31:29 15° NE 01:31:29 15° NE 01:32:33 10° NE visible
25 Sep 3.4 03:13:30 37° N 03:13:30 37° N 03:17:14 10° NNE visible
25 Sep 4.2 04:55:30 14° NW 04:57:16 15° NNW 05:00:36 10° N visible
26 Sep 4.8 01:19:34 13° NE 01:19:34 13° NE 01:20:16 10° NE visible
26 Sep 3.6 03:01:35 34° N 03:01:35 34° N 03:04:57 10° NNE visible
26 Sep 4.2 04:43:35 14° NW 04:44:59 15° NNW 04:48:19 10° N visible
27 Sep 4.9 01:07:39 12° NE 01:07:39 12° NE 01:07:59 10° NE visible
27 Sep 3.8 02:49:39 30° N 02:49:39 30° N 02:52:40 10° NNE visible
27 Sep 4.2 04:31:39 15° NW 04:32:42 15° NNW 04:36:02 10° N visible
28 Sep 4.0 02:37:42 27° N 02:37:42 27° N 02:40:23 10° NNE visible
28 Sep 4.2 04:19:42 15° NW 04:20:25 15° NNW 04:23:45 10° N visible
29 Sep 4.2 02:25:44 24° NNE 02:25:44 24° NNE 02:28:06 10° NNE visible
29 Sep 4.3 04:07:45 15° NW 04:08:08 15° NNW 04:11:27 10° N visible
30 Sep 4.4 02:13:46 22° NNE 02:13:46 22° NNE 02:15:49 10° NNE visible
30 Sep 4.3 03:55:46 15° NNW 03:55:51 15° NNW 03:59:10 10° N visible
01 Oct 4.5 02:01:47 20° NNE 02:01:47 20° NNE 02:03:32 10° NNE visible
01 Oct 4.4 03:43:47 15° NNW 03:43:47 15° NNW 03:46:53 10° N visible
02 Oct 4.6 01:49:48 18° NNE 01:49:48 18° NNE 01:51:15 10° NNE visible
02 Oct 4.4 03:31:48 15° NNW 03:31:48 15° NNW 03:34:36 10° N visible
